EW0592 Weather Reports


Display with metric or nautical units.
time (UTC)temp
F
wind
direction
speed
MPH
gust
MPH
rain 1hr
in
rain 24hr
in
rain mn
in
humidity
%
barometer
mb
20260906110004 70 21 0.0 3.0 0.00 0.00 0.00 83 1016.8
20260906103057 71 23 1.0 3.0 0.00 0.00 0.00 82 1016.3
20260906101558 71 23 0.0 3.0 0.00 0.00 0.00 81 1016.2
20260906100053 71 49 1.0 4.0 0.00 0.00 0.00 81 1016.2
20260906094552 72 37 0.0 3.0 0.00 0.00 0.00 81 1016.2
20260906093057 72 67 1.0 5.0 0.00 0.00 0.00 80 1016.0
20260906091552 72 18 1.0 4.0 0.00 0.00 0.00 80 1016.1
20260906090052 72 25 1.0 5.0 0.00 0.00 0.00 81 1016.0
20260906084555 72 26 0.0 3.0 0.00 0.00 0.00 81 1016.2
20260906083049 72 86 0.0 6.0 0.00 0.00 0.00 81 1016.0
20260906081548 72 25 0.0 4.0 0.00 0.00 0.00 81 1016.0
20260906080054 72 23 0.0 5.0 0.00 0.00 0.00 82 1015.9
20260906074552 72 30 2.0 4.0 0.00 0.00 0.00 82 1016.0
20260906073046 72 38 2.0 4.0 0.00 0.00 0.00 82 1016.0
20260906071545 72 6 1.0 4.0 0.00 0.00 0.00 82 1016.2
20260906070044 72 25 3.0 6.0 0.00 0.00 0.00 82 1016.1
20260906064544 72 40 1.0 5.0 0.00 0.00 0.00 82 1016.1
20260906063043 72 27 0.0 4.0 0.00 0.00 0.00 83 1016.2
20260906061543 72 25 2.0 4.0 0.00 0.00 0.00 83 1016.2
20260906060055 72 24 2.0 5.0 0.00 0.00 0.00 83 1016.2
20260906054541 72 18 2.0 5.0 0.00 0.00 0.00 84 1016.1
20260906053039 72 32 0.0 6.0 0.00 0.00 0.00 84 1016.1
20260906051542 72 28 3.0 7.0 0.00 0.00 0.00 84 1015.7
20260906050035 72 43 3.0 5.0 0.00 0.00 0.00 84 1015.7
20260906044535 72 28 1.0 7.0 0.00 0.00 0.00 84 1015.7
20260906043031 72 28 6.0 11.0 0.00 0.00 0.00 83 1015.4
20260906041539 72 42 2.0 11.0 0.00 0.00 0.00 83 1015.2
20260906040028 72 10 4.0 11.0 0.00 0.00 0.00 83 1015.1
20260906034531 72 46 5.0 9.0 0.00 0.00 0.00 82 1015.1
20260906033031 72 6 3.0 8.0 0.00 0.00 0.00 82 1015.1
20260906031527 72 42 5.0 12.0 0.00 0.00 0.00 82 1015.1
20260906030025 72 37 4.0 14.0 0.00 0.00 0.00 82 1015.1
20260906024524 72 27 7.0 13.0 0.00 0.00 0.00 82 1015.0
20260906023024 72 79 6.0 12.0 0.00 0.00 0.00 81 1014.9
20260906021524 72 18 4.0 12.0 0.00 0.00 0.00 81 1015.0
20260906020023 72 340 6.0 13.0 0.00 0.00 0.00 80 1015.1
20260906014525 72 359 5.0 11.0 0.00 0.00 0.00 80 1015.2
20260906013021 72 23 5.0 13.0 0.00 0.00 0.00 81 1015.1
20260906011520 72 4 6.0 14.0 0.00 0.00 0.00 81 1015.0
20260906010019 72 37 4.0 13.0 0.00 0.00 0.00 81 1014.8
20260906004619 72 38 4.0 13.0 0.00 0.00 0.00 81 1014.6
20260906003016 72 47 8.0 14.0 0.00 0.00 0.00 81 1014.5
20260906001516 72 17 8.0 16.0 0.00 0.00 0.00 81 1014.5
20260906000014 72 36 9.0 16.0 0.00 0.00 0.00 81 1014.5
20260905234513 72 18 8.0 16.0 0.00 0.00 0.00 81 1014.5
20260905233010 72 37 5.0 15.0 0.00 0.00 0.00 81 1014.5
20260905231507 72 32 8.0 15.0 0.00 0.00 0.00 81 1014.4
20260905230004 73 17 8.0 14.0 0.00 0.00 0.00 81 1014.2
20260905224508 74 34 7.0 19.0 0.00 0.00 0.00 80 1014.2
20260905223001 75 17 5.0 15.0 0.00 0.00 0.00 79 1014.2
20260905221600 75 23 4.0 12.0 0.00 0.00 0.00 78 1014.1
20260905220100 76 359 9.0 16.0 0.00 0.00 0.00 78 1014.0
20260905214600 77 358 5.0 13.0 0.00 0.00 0.00 77 1013.9
20260905213058 78 48 8.0 14.0 0.00 0.00 0.00 75 1013.5
20260905211557 79 11 2.0 15.0 0.00 0.00 0.00 75 1013.6
20260905210056 78 40 4.0 16.0 0.00 0.00 0.00 75 1013.6
20260905204555 79 337 5.0 14.0 0.00 0.00 0.00 72 1013.5
20260905203055 79 27 6.0 11.0 0.00 0.00 0.00 72 1013.6
20260905201606 78 40 7.0 12.0 0.00 0.00 0.00 73 1013.6
20260905200053 78 323 4.0 14.0 0.00 0.00 0.00 74 1013.7
20260905194552 78 9 8.0 15.0 0.00 0.00 0.00 73 1013.8
20260905193052 78 27 7.0 16.0 0.00 0.00 0.00 74 1013.9
20260905191553 78 345 9.0 13.0 0.00 0.00 0.00 74 1014.0
20260905190104 78 18 4.0 13.0 0.00 0.00 0.00 75 1014.0
20260905184605 78 357 8.0 14.0 0.00 0.00 0.00 75 1014.2
20260905183049 78 54 5.0 12.0 0.00 0.00 0.00 75 1014.0
20260905181550 78 9 7.0 12.0 0.00 0.00 0.00 75 1014.1
20260905180047 77 22 6.0 12.0 0.00 0.00 0.00 77 1014.1
20260905174554 77 11 5.0 13.0 0.00 0.00 0.00 77 1014.0
20260905173046 77 13 7.0 15.0 0.00 0.00 0.00 76 1014.0
20260905171545 78 6 6.0 11.0 0.00 0.00 0.00 75 1014.1
20260905170045 78 143 6.0 14.0 0.00 0.00 0.00 76 1014.0
20260905164546 78 27 5.0 12.0 0.00 0.00 0.00 75 1014.2
20260905163044 79 73 6.0 12.0 0.00 0.00 0.00 75 1014.2
20260905161543 79 308 8.0 12.0 0.00 0.00 0.00 75 1014.1
20260905160040 78 60 5.0 12.0 0.00 0.00 0.00 76 1013.9
20260905154538 78 358 3.0 12.0 0.00 0.00 0.00 77 1013.8
20260905153037 77 342 7.0 13.0 0.00 0.00 0.00 78 1013.7
20260905151536 78 48 9.0 14.0 0.00 0.00 0.00 77 1013.6
20260905150035 78 34 7.0 14.0 0.00 0.00 0.00 77 1013.5
20260905144541 77 340 6.0 12.0 0.00 0.00 0.00 79 1013.3
20260905143034 76 356 7.0 14.0 0.00 0.00 0.00 80 1013.3
20260905141540 76 30 6.0 13.0 0.00 0.00 0.00 81 1013.2
20260905140031 76 47 7.0 13.0 0.00 0.00 0.00 82 1013.2
20260905134535 76 22 5.0 11.0 0.00 0.00 0.00 81 1013.1
20260905133030 76 19 4.0 12.0 0.00 0.00 0.00 82 1013.4
20260905131543 75 35 0.0 9.0 0.00 0.00 0.00 86 1013.1
20260905130028 74 340 3.0 7.0 0.00 0.00 0.00 86 1013.0
20260905124536 74 36 2.0 7.0 0.00 0.00 0.00 88 1012.7
20260905123023 73 360 2.0 4.0 0.00 0.00 0.00 89 1012.7
20260905121529 73 22 2.0 7.0 0.00 0.00 0.00 89 1012.5
20260905120018 73 328 3.0 9.0 0.00 0.00 0.00 89 1012.2
20260905114534 73 24 0.0 5.0 0.00 0.00 0.00 88 1012.0
20260905113014 73 33 3.0 8.0 0.00 0.00 0.00 88 1011.8
20260905111516 73 359 2.0 6.0 0.00 0.00 0.00 88 1011.6